Time,TemperatureF,DewpointF,PressureIn,WindDirection,WindDirectionDegrees,WindSpeedMPH,WindSpeedGustMPH,Humidity,HourlyPrecipIn,Conditions,Clouds,dailyrainin,SoftwareType,DateUTC
2013-11-01 13:16:00,57.0,45.3,29.69,SSW,200,7.0,9.0,65,0.00,,,0.62,Wunderground v.1.13,2013-11-01 17:16:00,
2013-11-01 13:20:00,57.0,46.1,29.69,SSW,201,8.0,8.0,67,0.00,,,0.62,Wunderground v.1.13,2013-11-01 17:20:00,
2013-11-01 13:30:00,57.2,45.9,29.68,South,181,8.0,12.0,66,0.00,,,0.62,Wunderground v.1.13,2013-11-01 17:30:00,
2013-11-01 13:35:00,57.7,45.6,29.68,SSE,164,7.0,15.0,64,0.00,,,0.62,Wunderground v.1.13,2013-11-01 17:35:00,
2013-11-01 13:45:00,57.3,46.4,29.68,WSW,248,8.0,8.0,67,0.00,,,0.62,Wunderground v.1.13,2013-11-01 17:45:00,
2013-11-01 13:55:00,58.4,46.7,29.67,SW,223,6.0,6.0,65,0.00,,,0.62,Wunderground v.1.13,2013-11-01 17:55:00,
2013-11-01 14:00:00,58.4,45.8,29.67,South,191,9.0,9.0,63,0.00,,,0.62,Wunderground v.1.13,2013-11-01 18:00:00,
2013-11-01 14:10:00,58.9,45.9,29.67,South,184,9.0,19.0,62,0.00,,,0.62,Wunderground v.1.13,2013-11-01 18:10:00,
2013-11-01 14:20:00,58.8,46.2,29.67,SSW,193,10.0,10.0,63,0.00,,,0.62,Wunderground v.1.13,2013-11-01 18:20:00,
2013-11-01 14:25:00,59.1,46.1,29.67,South,173,6.0,9.0,62,0.00,,,0.62,Wunderground v.1.13,2013-11-01 18:25:00,
2013-11-01 14:30:00,59.2,45.8,29.67,SSE,167,6.0,12.0,61,0.00,,,0.62,Wunderground v.1.13,2013-11-01 18:30:00,
2013-11-01 14:40:00,58.9,45.0,29.66,South,186,9.0,9.0,60,0.00,,,0.62,Wunderground v.1.13,2013-11-01 18:40:00,
2013-11-01 14:50:00,59.0,45.6,29.67,South,169,7.0,13.0,61,0.00,,,0.62,Wunderground v.1.13,2013-11-01 18:50:00,
2013-11-01 14:55:00,59.1,45.7,29.66,SSW,199,8.0,8.0,61,0.00,,,0.62,Wunderground v.1.13,2013-11-01 18:55:00,
2013-11-01 15:00:00,59.2,45.3,29.66,SSW,204,7.0,8.0,60,0.00,,,0.62,Wunderground v.1.13,2013-11-01 19:00:00,
2013-11-01 15:10:00,59.2,44.9,29.66,WSW,237,5.0,7.0,59,0.00,,,0.62,Wunderground v.1.13,2013-11-01 19:10:00,
2013-11-01 15:15:00,59.5,44.7,29.66,SSE,159,6.0,6.0,58,0.00,,,0.62,Wunderground v.1.13,2013-11-01 19:15:00,
2013-11-01 15:25:00,59.4,44.6,29.66,South,184,5.0,7.0,58,0.00,,,0.62,Wunderground v.1.13,2013-11-01 19:25:00,
2013-11-01 15:30:00,59.4,44.6,29.66,SW,218,4.0,6.0,58,0.00,,,0.62,Wunderground v.1.13,2013-11-01 19:30:00,
2013-11-01 15:40:00,59.7,45.8,29.66,SSW,202,5.0,7.0,60,0.00,,,0.62,Wunderground v.1.13,2013-11-01 19:40:00,
2013-11-01 15:45:00,59.7,45.8,29.66,SW,222,6.0,7.0,60,0.00,,,0.62,Wunderground v.1.13,2013-11-01 19:45:00,
2013-11-01 15:50:00,59.6,45.7,29.66,WSW,244,6.0,6.0,60,0.00,,,0.62,Wunderground v.1.13,2013-11-01 19:50:00,
2013-11-01 16:00:00,59.6,45.2,29.66,WNW,291,3.0,6.0,59,0.00,,,0.62,Wunderground v.1.13,2013-11-01 20:00:00,
2013-11-01 16:10:00,60.2,45.4,29.66,West,267,4.0,6.0,58,0.00,,,0.62,Wunderground v.1.13,2013-11-01 20:10:00,
2013-11-01 16:15:00,60.3,45.0,29.66,SSW,203,5.0,7.0,57,0.00,,,0.62,Wunderground v.1.13,2013-11-01 20:15:00,
2013-11-01 16:25:00,60.2,44.9,29.66,South,170,6.0,6.0,57,0.00,,,0.62,Wunderground v.1.13,2013-11-01 20:25:00,
2013-11-01 16:35:00,60.0,45.2,29.66,South,186,5.0,6.0,58,0.00,,,0.62,Wunderground v.1.13,2013-11-01 20:35:00,
2013-11-01 16:40:00,60.0,45.6,29.66,South,169,5.0,7.0,59,0.00,,,0.62,Wunderground v.1.13,2013-11-01 20:40:00,
2013-11-01 16:45:00,59.8,45.4,29.66,WSW,243,6.0,8.0,59,0.00,,,0.62,Wunderground v.1.13,2013-11-01 20:45:00,
2013-11-01 16:55:00,59.6,45.2,29.66,SW,216,6.0,11.0,59,0.00,,,0.62,Wunderground v.1.13,2013-11-01 20:55:00,
2013-11-01 17:00:00,59.6,45.7,29.66,SSW,207,6.0,6.0,60,0.00,,,0.62,Wunderground v.1.13,2013-11-01 21:00:00,
2013-11-01 17:10:00,59.6,45.2,29.66,SSW,198,6.0,6.0,59,0.00,,,0.62,Wunderground v.1.13,2013-11-01 21:10:00,
2013-11-01 17:20:00,59.7,45.8,29.67,SSW,207,5.0,5.0,60,0.00,,,0.62,Wunderground v.1.13,2013-11-01 21:20:00,
2013-11-01 17:25:00,59.7,44.9,29.66,SSW,194,6.0,6.0,58,0.00,,,0.62,Wunderground v.1.13,2013-11-01 21:25:00,
2013-11-01 17:35:00,59.6,45.2,29.66,SSW,194,5.0,5.0,59,0.00,,,0.62,Wunderground v.1.13,2013-11-01 21:35:00,
2013-11-01 17:45:00,59.6,45.2,29.67,SW,219,5.0,6.0,59,0.00,,,0.62,Wunderground v.1.13,2013-11-01 21:45:00,
2013-11-01 17:55:00,59.6,45.2,29.66,SSW,207,6.0,6.0,59,0.00,,,0.62,Wunderground v.1.13,2013-11-01 21:55:00,
2013-11-01 18:05:00,59.5,45.6,29.67,SSW,202,4.0,4.0,60,0.00,,,0.62,Wunderground v.1.13,2013-11-01 22:05:00,
2013-11-01 18:15:00,59.3,45.4,29.67,SSW,205,3.0,3.0,60,0.00,,,0.62,Wunderground v.1.13,2013-11-01 22:15:00,
2013-11-01 18:25:00,59.0,45.6,29.67,SSW,212,3.0,3.0,61,0.00,,,0.62,Wunderground v.1.13,2013-11-01 22:25:00,
2013-11-01 18:35:00,58.7,45.7,29.67,SSW,211,3.0,3.0,62,0.00,,,0.62,Wunderground v.1.13,2013-11-01 22:35:00,
2013-11-01 18:40:00,58.6,45.6,29.68,SSW,210,3.0,3.0,62,0.00,,,0.62,Wunderground v.1.13,2013-11-01 22:40:00,
2013-11-01 18:50:00,58.3,45.8,29.68,SSW,207,3.0,3.0,63,0.00,,,0.62,Wunderground v.1.13,2013-11-01 22:50:00,
2013-11-01 18:55:00,58.2,45.7,29.68,SSW,210,3.0,3.0,63,0.00,,,0.62,Wunderground v.1.13,2013-11-01 22:55:00,
2013-11-01 19:05:00,58.1,46.0,29.68,SSW,210,2.0,2.0,64,0.00,,,0.62,Wunderground v.1.13,2013-11-01 23:05:00,
2013-11-01 19:10:00,58.0,45.9,29.68,SSW,210,1.0,2.0,64,0.00,,,0.62,Wunderground v.1.13,2013-11-01 23:10:00,
2013-11-01 19:15:00,57.6,45.9,29.68,SSW,210,1.0,1.0,65,0.00,,,0.62,Wunderground v.1.13,2013-11-01 23:15:00,
2013-11-01 19:25:00,57.1,45.8,29.68,SSW,199,2.0,2.0,66,0.00,,,0.62,Wunderground v.1.13,2013-11-01 23:25:00,
2013-11-01 19:35:00,56.9,46.1,29.68,SSW,199,0.0,0.0,67,0.00,,,0.62,Wunderground v.1.13,2013-11-01 23:35:00,
2013-11-01 19:40:00,56.9,46.1,29.68,SSW,199,0.0,0.0,67,0.00,,,0.62,Wunderground v.1.13,2013-11-01 23:40:00,
2013-11-01 19:50:00,57.0,46.1,29.69,SSW,199,0.0,1.0,67,0.00,,,0.62,Wunderground v.1.13,2013-11-01 23:50:00,
2013-11-01 20:00:00,56.7,45.9,29.68,South,187,1.0,1.0,67,0.00,,,0.62,Wunderground v.1.13,2013-11-02 00:00:00,
2013-11-01 20:10:00,56.3,45.9,29.69,South,187,1.0,1.0,68,0.00,,,0.62,Wunderground v.1.13,2013-11-02 00:10:00,
2013-11-01 20:15:00,56.1,46.1,29.69,South,187,1.0,1.0,69,0.00,,,0.62,Wunderground v.1.13,2013-11-02 00:15:00,
2013-11-01 20:25:00,55.8,46.2,29.69,South,187,1.0,1.0,70,0.00,,,0.62,Wunderground v.1.13,2013-11-02 00:25:00,
2013-11-01 20:35:00,55.7,45.7,29.69,South,187,1.0,1.0,69,0.00,,,0.62,Wunderground v.1.13,2013-11-02 00:35:00,
2013-11-01 20:40:00,55.7,45.7,29.69,South,187,1.0,1.0,69,0.00,,,0.62,Wunderground v.1.13,2013-11-02 00:40:00,
2013-11-01 20:50:00,55.8,46.5,29.69,South,190,1.0,1.0,71,0.00,,,0.62,Wunderground v.1.13,2013-11-02 00:50:00,
2013-11-01 21:00:00,55.3,47.9,29.69,South,190,0.0,0.0,76,0.00,,,0.62,Wunderground v.1.13,2013-11-02 01:00:00,
2013-11-01 21:05:00,55.0,47.2,29.69,South,190,0.0,0.0,75,0.00,,,0.62,Wunderground v.1.13,2013-11-02 01:05:00,
2013-11-01 21:15:00,54.5,47.4,29.69,South,190,0.0,1.0,77,0.00,,,0.62,Wunderground v.1.13,2013-11-02 01:15:00,
2013-11-01 21:25:00,54.0,48.3,29.70,South,190,0.0,1.0,81,0.00,,,0.62,Wunderground v.1.13,2013-11-02 01:25:00,
2013-11-01 21:35:00,53.7,47.3,29.70,WSW,253,2.0,2.0,79,0.00,,,0.62,Wunderground v.1.13,2013-11-02 01:35:00,
2013-11-01 21:45:00,53.9,47.2,29.70,West,277,3.0,3.0,78,0.00,,,0.62,Wunderground v.1.13,2013-11-02 01:45:00,
2013-11-01 21:55:00,54.0,47.6,29.70,West,277,0.0,0.0,79,0.00,,,0.62,Wunderground v.1.13,2013-11-02 01:55:00,
2013-11-01 22:00:00,53.9,47.5,29.70,West,277,0.0,0.0,79,0.00,,,0.62,Wunderground v.1.13,2013-11-02 02:00:00,
2013-11-01 22:10:00,53.6,47.2,29.70,West,277,0.0,0.0,79,0.00,,,0.62,Wunderground v.1.13,2013-11-02 02:10:00,
2013-11-01 22:20:00,53.4,47.4,29.70,West,277,0.0,0.0,80,0.00,,,0.62,Wunderground v.1.13,2013-11-02 02:20:00,
2013-11-01 22:25:00,53.3,47.3,29.71,West,277,0.0,3.0,80,0.00,,,0.62,Wunderground v.1.13,2013-11-02 02:25:00,
2013-11-01 22:30:00,53.3,47.6,29.71,West,277,0.0,0.0,81,0.00,,,0.62,Wunderground v.1.13,2013-11-02 02:30:00,
2013-11-01 22:40:00,53.1,47.7,29.71,West,277,0.0,0.0,82,0.00,,,0.62,Wunderground v.1.13,2013-11-02 02:40:00,
2013-11-01 22:50:00,52.8,47.5,29.71,West,277,0.0,0.0,82,0.00,,,0.62,Wunderground v.1.13,2013-11-02 02:50:00,
2013-11-01 23:00:00,52.6,47.3,29.72,West,277,0.0,0.0,82,0.00,,,0.62,Wunderground v.1.13,2013-11-02 03:00:00,
2013-11-01 23:09:00,52.3,47.0,29.72,West,277,0.0,0.0,82,0.00,,,0.62,Wunderground v.1.13,2013-11-02 03:09:00,
2013-11-01 23:15:00,52.3,47.0,29.72,West,277,0.0,1.0,82,0.00,,,0.62,Wunderground v.1.13,2013-11-02 03:15:00,
2013-11-01 23:25:00,52.2,47.2,29.72,West,277,0.0,0.0,83,0.00,,,0.62,Wunderground v.1.13,2013-11-02 03:25:00,
2013-11-01 23:35:00,52.1,46.8,29.72,WNW,290,1.0,5.0,82,0.00,,,0.62,Wunderground v.1.13,2013-11-02 03:35:00,
2013-11-01 23:40:00,52.1,46.4,29.72,West,280,2.0,2.0,81,0.00,,,0.62,Wunderground v.1.13,2013-11-02 03:40:00,
2013-11-01 23:50:00,52.0,46.7,29.72,West,280,1.0,1.0,82,0.00,,,0.62,Wunderground v.1.13,2013-11-02 03:50:00,